| time (UTC) | temp F | wind direction | speed MPH | gust MPH | rain 1hr in | rain 24hr in | rain mn in | humidity % | barometer mb |
| 20260508065149 | 39 | 338 | 0.0 | 3.0 | 0.00 | 0.00 | 0.00 | 45 | 1023.8 |
| 20260508064649 | 39 | 305 | 0.0 | 7.0 | 0.00 | 0.00 | 0.00 | 45 | 1023.8 |
| 20260508064550 | 39 | 267 | 0.0 | 7.0 | 0.00 | 0.00 | 0.00 | 45 | 1023.8 |
| 20260508064149 | 38 | 188 | 3.0 | 3.0 | 0.00 | 0.00 | 0.00 | 47 | 1023.8 |
| 20260508063649 | 38 | 57 | 0.0 | 4.0 | 0.00 | 0.00 | 0.00 | 48 | 1023.8 |
| 20260508063450 | 38 | 45 | 2.0 | 4.0 | 0.00 | 0.00 | 0.00 | 49 | 1023.7 |
| 20260508063149 | 38 | 64 | 0.0 | 0.0 | 0.00 | 0.00 | 0.00 | 50 | 1023.7 |
| 20260508062649 | 37 | 94 | 0.0 | 5.0 | 0.00 | 0.00 | 0.00 | 50 | 1023.7 |
| 20260508062350 | 37 | 61 | 0.0 | 6.0 | 0.00 | 0.00 | 0.00 | 50 | 1023.7 |
| 20260508062149 | 37 | 130 | 4.0 | 6.0 | 0.00 | 0.00 | 0.00 | 50 | 1023.7 |
| 20260508061649 | 37 | 109 | 1.0 | 4.0 | 0.00 | 0.00 | 0.00 | 51 | 1023.7 |
| 20260508061250 | 37 | 97 | 0.0 | 2.0 | 0.00 | 0.00 | 0.00 | 52 | 1023.8 |
| 20260508061149 | 37 | 139 | 0.0 | 1.0 | 0.00 | 0.00 | 0.00 | 52 | 1023.7 |
| 20260508060649 | 36 | 160 | 0.0 | 2.0 | 0.00 | 0.00 | 0.00 | 52 | 1023.8 |
| 20260508060149 | 36 | 143 | 0.0 | 4.0 | 0.00 | 0.00 | 0.00 | 52 | 1023.8 |
| 20260508055649 | 36 | 85 | 0.0 | 5.0 | 0.00 | 0.00 | 0.00 | 52 | 1023.9 |
| 20260508055149 | 36 | 106 | 0.0 | 0.0 | 0.00 | 0.00 | 0.00 | 53 | 1023.8 |
| 20260508055050 | 36 | 106 | 0.0 | 1.0 | 0.00 | 0.00 | 0.00 | 53 | 1023.8 |
| 20260508054649 | 36 | 106 | 0.0 | 3.0 | 0.00 | 0.00 | 0.00 | 53 | 1023.8 |
| 20260508054149 | 35 | 109 | 0.0 | 4.0 | 0.00 | 0.00 | 0.00 | 53 | 1023.8 |
| 20260508053950 | 35 | 109 | 0.0 | 4.0 | 0.00 | 0.00 | 0.00 | 53 | 1023.8 |
| 20260508053649 | 35 | 140 | 3.0 | 4.0 | 0.00 | 0.00 | 0.00 | 54 | 1023.8 |
| 20260508053149 | 35 | 56 | 0.0 | 2.0 | 0.00 | 0.00 | 0.00 | 54 | 1023.9 |
| 20260508052851 | 35 | 140 | 0.0 | 2.0 | 0.00 | 0.00 | 0.00 | 55 | 1023.9 |
| 20260508052650 | 35 | 147 | 0.0 | 4.0 | 0.00 | 0.00 | 0.00 | 55 | 1023.8 |
| 20260508052149 | 34 | 112 | 0.0 | 1.0 | 0.00 | 0.00 | 0.00 | 56 | 1023.8 |
| 20260508051750 | 34 | 195 | 0.0 | 5.0 | 0.00 | 0.00 | 0.00 | 57 | 1023.8 |
| 20260508051649 | 34 | 137 | 0.0 | 6.0 | 0.00 | 0.00 | 0.00 | 57 | 1023.9 |
| 20260508051150 | 34 | 174 | 1.0 | 4.0 | 0.00 | 0.00 | 0.00 | 57 | 1023.9 |
| 20260508050650 | 34 | 127 | 0.0 | 3.0 | 0.00 | 0.00 | 0.00 | 58 | 1023.8 |
| 20260508050150 | 33 | 192 | 0.0 | 5.0 | 0.00 | 0.00 | 0.00 | 59 | 1023.9 |
| 20260508045650 | 33 | 175 | 2.0 | 4.0 | 0.00 | 0.00 | 0.00 | 59 | 1023.9 |
| 20260508045551 | 33 | 67 | 0.0 | 4.0 | 0.00 | 0.00 | 0.00 | 60 | 1023.9 |
| 20260508045150 | 33 | 32 | 0.0 | 3.0 | 0.00 | 0.00 | 0.00 | 60 | 1023.9 |
| 20260508044650 | 32 | 23 | 0.0 | 5.0 | 0.00 | 0.00 | 0.00 | 61 | 1023.9 |
| 20260508044451 | 32 | 33 | 1.0 | 5.0 | 0.00 | 0.00 | 0.00 | 62 | 1023.9 |
| 20260508044150 | 32 | 59 | 0.0 | 2.0 | 0.00 | 0.00 | 0.00 | 63 | 1023.9 |
| 20260508043650 | 31 | 28 | 0.0 | 3.0 | 0.00 | 0.00 | 0.00 | 63 | 1023.9 |
| 20260508043351 | 31 | 28 | 0.0 | 3.0 | 0.00 | 0.00 | 0.00 | 63 | 1023.9 |
| 20260508043150 | 31 | 80 | 0.0 | 0.0 | 0.00 | 0.00 | 0.00 | 64 | 1024.0 |
| 20260508042650 | 31 | 80 | 0.0 | 0.0 | 0.00 | 0.00 | 0.00 | 64 | 1024.0 |
| 20260508042251 | 31 | 80 | 0.0 | 0.0 | 0.00 | 0.00 | 0.00 | 64 | 1024.0 |
| 20260508042150 | 31 | 80 | 0.0 | 0.0 | 0.00 | 0.00 | 0.00 | 64 | 1024.0 |
| 20260508041650 | 30 | 80 | 0.0 | 0.0 | 0.00 | 0.00 | 0.00 | 65 | 1023.9 |
| 20260508041150 | 30 | 80 | 0.0 | 0.0 | 0.00 | 0.00 | 0.00 | 65 | 1024.0 |
| 20260508040650 | 30 | 25 | 0.0 | 0.0 | 0.00 | 0.00 | 0.00 | 65 | 1024.0 |
| 20260508040150 | 30 | 25 | 0.0 | 0.0 | 0.00 | 0.00 | 0.00 | 66 | 1023.9 |
| 20260508040051 | 30 | 25 | 0.0 | 0.0 | 0.00 | 0.00 | 0.00 | 66 | 1024.1 |
| 20260508035650 | 29 | 25 | 0.0 | 1.0 | 0.00 | 0.00 | 0.00 | 66 | 1024.1 |
| 20260508035150 | 29 | 73 | 0.0 | 0.0 | 0.00 | 0.00 | 0.00 | 66 | 1024.0 |
| 20260508034951 | 29 | 73 | 0.0 | 0.0 | 0.00 | 0.00 | 0.00 | 66 | 1024.0 |
| 20260508034650 | 29 | 73 | 0.0 | 2.0 | 0.00 | 0.00 | 0.00 | 66 | 1024.0 |
| 20260508034150 | 29 | 82 | 0.0 | 0.0 | 0.00 | 0.00 | 0.00 | 67 | 1024.0 |
| 20260508033851 | 28 | 82 | 0.0 | 2.0 | 0.00 | 0.00 | 0.00 | 67 | 1024.0 |
| 20260508033650 | 28 | 82 | 0.0 | 2.0 | 0.00 | 0.00 | 0.00 | 67 | 1024.0 |
| 20260508033150 | 28 | 80 | 0.0 | 0.0 | 0.00 | 0.00 | 0.00 | 67 | 1024.0 |
| 20260508032751 | 28 | 80 | 0.0 | 0.0 | 0.00 | 0.00 | 0.00 | 67 | 1024.0 |
| 20260508032650 | 28 | 80 | 0.0 | 0.0 | 0.00 | 0.00 | 0.00 | 67 | 1024.0 |
| 20260508032150 | 28 | 80 | 0.0 | 0.0 | 0.00 | 0.00 | 0.00 | 67 | 1023.9 |
| 20260508031650 | 28 | 80 | 0.0 | 0.0 | 0.00 | 0.00 | 0.00 | 66 | 1023.9 |
| 20260508031150 | 28 | 80 | 0.0 | 0.0 | 0.00 | 0.00 | 0.00 | 66 | 1023.9 |
| 20260508030650 | 28 | 80 | 0.0 | 0.0 | 0.00 | 0.00 | 0.00 | 66 | 1023.8 |
| 20260508030551 | 28 | 80 | 0.0 | 0.0 | 0.00 | 0.00 | 0.00 | 66 | 1023.9 |
| 20260508030150 | 28 | 80 | 0.0 | 0.0 | 0.00 | 0.00 | 0.00 | 66 | 1023.9 |
| 20260508025650 | 28 | 80 | 0.0 | 0.0 | 0.00 | 0.00 | 0.00 | 66 | 1023.8 |
| 20260508025452 | 28 | 80 | 0.0 | 0.0 | 0.00 | 0.00 | 0.00 | 66 | 1023.8 |
| 20260508025150 | 28 | 80 | 0.0 | 0.0 | 0.00 | 0.00 | 0.00 | 66 | 1023.8 |
| 20260508024650 | 28 | 80 | 0.0 | 0.0 | 0.00 | 0.00 | 0.00 | 66 | 1023.8 |
| 20260508024351 | 28 | 80 | 0.0 | 0.0 | 0.00 | 0.00 | 0.00 | 66 | 1023.7 |
| 20260508024150 | 28 | 80 | 0.0 | 0.0 | 0.00 | 0.00 | 0.00 | 66 | 1023.7 |
| 20260508023650 | 28 | 80 | 0.0 | 0.0 | 0.00 | 0.00 | 0.00 | 66 | 1023.7 |
| 20260508023251 | 28 | 80 | 0.0 | 0.0 | 0.00 | 0.00 | 0.00 | 66 | 1023.7 |
| 20260508023150 | 28 | 80 | 0.0 | 0.0 | 0.00 | 0.00 | 0.00 | 66 | 1023.6 |
| 20260508022650 | 28 | 80 | 0.0 | 0.0 | 0.00 | 0.00 | 0.00 | 65 | 1023.7 |
| 20260508022150 | 28 | 80 | 0.0 | 0.0 | 0.00 | 0.00 | 0.00 | 65 | 1023.6 |
| 20260508021650 | 28 | 80 | 0.0 | 0.0 | 0.00 | 0.00 | 0.00 | 66 | 1023.6 |
| 20260508021150 | 28 | 80 | 0.0 | 0.0 | 0.00 | 0.00 | 0.00 | 66 | 1023.6 |
| 20260508021051 | 27 | 80 | 0.0 | 0.0 | 0.00 | 0.00 | 0.00 | 66 | 1023.6 |
| 20260508020650 | 27 | 80 | 0.0 | 0.0 | 0.00 | 0.00 | 0.00 | 66 | 1023.6 |
| 20260508020150 | 27 | 80 | 0.0 | 0.0 | 0.00 | 0.00 | 0.00 | 66 | 1023.6 |
| 20260508015951 | 28 | 80 | 0.0 | 0.0 | 0.00 | 0.00 | 0.00 | 66 | 1023.6 |
| 20260508015650 | 28 | 80 | 0.0 | 0.0 | 0.00 | 0.00 | 0.00 | 66 | 1023.6 |
| 20260508015150 | 28 | 80 | 0.0 | 0.0 | 0.00 | 0.00 | 0.00 | 66 | 1023.6 |
| 20260508014851 | 28 | 80 | 0.0 | 1.0 | 0.00 | 0.00 | 0.00 | 66 | 1023.6 |
| 20260508014650 | 28 | 80 | 0.0 | 1.0 | 0.00 | 0.00 | 0.00 | 66 | 1023.6 |
| 20260508014150 | 28 | 317 | 0.0 | 0.0 | 0.00 | 0.00 | 0.00 | 66 | 1023.6 |
| 20260508013751 | 28 | 317 | 0.0 | 0.0 | 0.00 | 0.00 | 0.00 | 65 | 1023.6 |
| 20260508013650 | 28 | 317 | 0.0 | 0.0 | 0.00 | 0.00 | 0.00 | 65 | 1023.5 |
| 20260508013150 | 28 | 317 | 0.0 | 0.0 | 0.00 | 0.00 | 0.00 | 65 | 1023.5 |
| 20260508012650 | 28 | 317 | 0.0 | 0.0 | 0.00 | 0.00 | 0.00 | 65 | 1023.3 |
| 20260508012150 | 28 | 317 | 0.0 | 0.0 | 0.00 | 0.00 | 0.00 | 64 | 1023.3 |
| 20260508011650 | 28 | 317 | 0.0 | 0.0 | 0.00 | 0.00 | 0.00 | 64 | 1023.2 |
| 20260508011551 | 28 | 317 | 0.0 | 0.0 | 0.00 | 0.00 | 0.00 | 64 | 1023.3 |
| 20260508011150 | 28 | 317 | 0.0 | 0.0 | 0.00 | 0.00 | 0.00 | 64 | 1023.5 |
| 20260508010650 | 28 | 317 | 0.0 | 0.0 | 0.00 | 0.00 | 0.00 | 64 | 1023.5 |
| 20260508010451 | 28 | 317 | 0.0 | 0.0 | 0.00 | 0.00 | 0.00 | 64 | 1023.5 |
| 20260508010150 | 28 | 317 | 0.0 | 0.0 | 0.00 | 0.00 | 0.00 | 63 | 1023.5 |
| 20260508005650 | 28 | 317 | 0.0 | 0.0 | 0.00 | 0.00 | 0.00 | 63 | 1023.3 |
| 20260508005351 | 28 | 317 | 0.0 | 0.0 | 0.00 | 0.00 | 0.00 | 63 | 1023.3 |
| 20260508005150 | 28 | 317 | 0.0 | 0.0 | 0.00 | 0.00 | 0.00 | 62 | 1023.2 |
| 20260508004650 | 28 | 317 | 0.0 | 0.0 | 0.00 | 0.00 | 0.00 | 62 | 1023.3 |
| 20260508004251 | 28 | 317 | 0.0 | 0.0 | 0.00 | 0.00 | 0.00 | 61 | 1023.3 |
| 20260508004150 | 28 | 317 | 0.0 | 0.0 | 0.00 | 0.00 | 0.00 | 61 | 1023.2 |
| 20260508003650 | 28 | 317 | 0.0 | 0.0 | 0.00 | 0.00 | 0.00 | 60 | 1023.2 |
| 20260508003150 | 28 | 317 | 0.0 | 0.0 | 0.00 | 0.00 | 0.00 | 60 | 1023.2 |
| 20260508002650 | 28 | 317 | 0.0 | 0.0 | 0.00 | 0.00 | 0.00 | 59 | 1023.2 |
| 20260508002150 | 28 | 317 | 0.0 | 0.0 | 0.00 | 0.00 | 0.00 | 59 | 1023.2 |
| 20260508002051 | 28 | 317 | 0.0 | 0.0 | 0.00 | 0.00 | 0.00 | 59 | 1023.2 |
| 20260508001650 | 28 | 317 | 0.0 | 0.0 | 0.00 | 0.00 | 0.00 | 59 | 1023.2 |
| 20260508001150 | 28 | 317 | 0.0 | 0.0 | 0.00 | 0.00 | 0.00 | 59 | 1023.3 |
| 20260508000952 | 29 | 317 | 0.0 | 0.0 | 0.00 | 0.00 | 0.00 | 59 | 1023.3 |
| 20260508000651 | 29 | 317 | 0.0 | 0.0 | 0.00 | 0.00 | 0.00 | 59 | 1023.3 |
| 20260508000150 | 29 | 317 | 0.0 | 0.0 | 0.00 | 0.00 | 0.00 | 58 | 1023.2 |
| 20260507235851 | 29 | 317 | 0.0 | 0.0 | 0.00 | 0.00 | 0.00 | 58 | 1023.2 |
| 20260507235650 | 29 | 317 | 0.0 | 0.0 | 0.00 | 0.00 | 0.00 | 58 | 1023.2 |
| 20260507235150 | 29 | 317 | 0.0 | 0.0 | 0.00 | 0.00 | 0.00 | 58 | 1023.2 |
| 20260507234751 | 29 | 317 | 0.0 | 0.0 | 0.00 | 0.00 | 0.00 | 58 | 1023.2 |
| 20260507234650 | 29 | 317 | 0.0 | 0.0 | 0.00 | 0.00 | 0.00 | 58 | 1023.1 |
| 20260507234150 | 29 | 317 | 0.0 | 0.0 | 0.00 | 0.00 | 0.00 | 58 | 1023.2 |
| 20260507233650 | 29 | 317 | 0.0 | 0.0 | 0.00 | 0.00 | 0.00 | 58 | 1023.2 |
| 20260507233150 | 29 | 317 | 0.0 | 0.0 | 0.00 | 0.00 | 0.00 | 58 | 1023.1 |
| 20260507232650 | 29 | 317 | 0.0 | 0.0 | 0.00 | 0.00 | 0.00 | 58 | 1022.9 |
| 20260507232551 | 29 | 317 | 0.0 | 0.0 | 0.00 | 0.00 | 0.00 | 58 | 1023.1 |
| 20260507232150 | 30 | 317 | 0.0 | 0.0 | 0.00 | 0.00 | 0.00 | 57 | 1023.0 |
| 20260507231650 | 30 | 317 | 0.0 | 0.0 | 0.00 | 0.00 | 0.00 | 57 | 1023.0 |
| 20260507231451 | 30 | 317 | 0.0 | 0.0 | 0.00 | 0.00 | 0.00 | 57 | 1023.0 |
| 20260507231150 | 30 | 317 | 0.0 | 0.0 | 0.00 | 0.00 | 0.00 | 57 | 1023.0 |
| 20260507230650 | 30 | 317 | 0.0 | 0.0 | 0.00 | 0.00 | 0.00 | 58 | 1023.0 |
| 20260507230351 | 30 | 317 | 0.0 | 0.0 | 0.00 | 0.00 | 0.00 | 58 | 1022.9 |
| 20260507230150 | 30 | 317 | 0.0 | 0.0 | 0.00 | 0.00 | 0.00 | 58 | 1022.9 |
| 20260507225650 | 30 | 317 | 0.0 | 0.0 | 0.00 | 0.00 | 0.00 | 58 | 1022.9 |
| 20260507225251 | 30 | 317 | 0.0 | 0.0 | 0.00 | 0.00 | 0.00 | 58 | 1022.9 |
| 20260507225150 | 30 | 317 | 0.0 | 0.0 | 0.00 | 0.00 | 0.00 | 58 | 1022.8 |
| 20260507224650 | 30 | 317 | 0.0 | 0.0 | 0.00 | 0.00 | 0.00 | 58 | 1022.8 |
| 20260507224150 | 30 | 317 | 0.0 | 0.0 | 0.00 | 0.00 | 0.00 | 58 | 1022.8 |
| 20260507223650 | 30 | 317 | 0.0 | 0.0 | 0.00 | 0.00 | 0.00 | 58 | 1022.8 |
| 20260507223150 | 30 | 317 | 0.0 | 0.0 | 0.00 | 0.00 | 0.00 | 57 | 1022.6 |
| 20260507223051 | 30 | 317 | 0.0 | 0.0 | 0.00 | 0.00 | 0.00 | 57 | 1022.7 |
| 20260507222650 | 30 | 317 | 0.0 | 0.0 | 0.00 | 0.00 | 0.00 | 58 | 1022.7 |
| 20260507222150 | 30 | 317 | 0.0 | 0.0 | 0.00 | 0.00 | 0.00 | 58 | 1022.7 |
| 20260507221951 | 30 | 317 | 0.0 | 0.0 | 0.00 | 0.00 | 0.00 | 57 | 1022.7 |
| 20260507221650 | 30 | 317 | 0.0 | 0.0 | 0.00 | 0.00 | 0.00 | 57 | 1022.7 |
| 20260507221150 | 30 | 317 | 0.0 | 0.0 | 0.00 | 0.00 | 0.00 | 58 | 1022.6 |
| 20260507220150 | 30 | 317 | 0.0 | 0.0 | 0.00 | 0.00 | 0.00 | 58 | 1022.6 |
| 20260507215650 | 29 | 317 | 0.0 | 0.0 | 0.00 | 0.00 | 0.00 | 58 | 1022.4 |
| 20260507215150 | 29 | 317 | 0.0 | 0.0 | 0.00 | 0.00 | 0.00 | 58 | 1022.3 |
| 20260507214650 | 29 | 317 | 0.0 | 0.0 | 0.00 | 0.00 | 0.00 | 59 | 1022.3 |
| 20260507214150 | 29 | 317 | 0.0 | 0.0 | 0.00 | 0.00 | 0.00 | 59 | 1022.3 |
| 20260507213650 | 29 | 317 | 0.0 | 0.0 | 0.00 | 0.00 | 0.00 | 60 | 1022.2 |
| 20260507213150 | 29 | 317 | 0.0 | 0.0 | 0.00 | 0.00 | 0.00 | 60 | 1022.3 |
| 20260507212650 | 28 | 317 | 0.0 | 0.0 | 0.00 | 0.00 | 0.00 | 60 | 1022.2 |
| 20260507212150 | 28 | 317 | 0.0 | 0.0 | 0.00 | 0.00 | 0.00 | 60 | 1022.2 |
| 20260507211650 | 29 | 317 | 0.0 | 0.0 | 0.00 | 0.00 | 0.00 | 60 | 1022.2 |
| 20260507211150 | 29 | 317 | 0.0 | 0.0 | 0.00 | 0.00 | 0.00 | 59 | 1022.2 |
| 20260507210650 | 29 | 317 | 0.0 | 0.0 | 0.00 | 0.00 | 0.00 | 58 | 1022.1 |
| 20260507210150 | 29 | 317 | 0.0 | 0.0 | 0.00 | 0.00 | 0.00 | 57 | 1022.2 |
| 20260507205650 | 29 | 317 | 0.0 | 0.0 | 0.00 | 0.00 | 0.00 | 56 | 1022.2 |
| 20260507205150 | 30 | 317 | 0.0 | 0.0 | 0.00 | 0.00 | 0.00 | 56 | 1022.1 |
| 20260507204650 | 30 | 317 | 0.0 | 0.0 | 0.00 | 0.00 | 0.00 | 55 | 1022.1 |
| 20260507204150 | 30 | 317 | 0.0 | 0.0 | 0.00 | 0.00 | 0.00 | 55 | 1021.9 |
| 20260507203650 | 30 | 317 | 0.0 | 0.0 | 0.00 | 0.00 | 0.00 | 55 | 1022.0 |
| 20260507203150 | 31 | 317 | 0.0 | 0.0 | 0.00 | 0.00 | 0.00 | 54 | 1022.0 |
| 20260507202650 | 31 | 317 | 0.0 | 0.0 | 0.00 | 0.00 | 0.00 | 54 | 1022.0 |
| 20260507202150 | 31 | 317 | 0.0 | 0.0 | 0.00 | 0.00 | 0.00 | 52 | 1021.9 |
| 20260507201650 | 32 | 317 | 0.0 | 0.0 | 0.00 | 0.00 | 0.00 | 51 | 1021.9 |
| 20260507201150 | 32 | 317 | 0.0 | 0.0 | 0.00 | 0.00 | 0.00 | 50 | 1021.8 |
| 20260507200650 | 32 | 317 | 0.0 | 0.0 | 0.00 | 0.00 | 0.00 | 50 | 1021.8 |
| 20260507200150 | 33 | 317 | 0.0 | 0.0 | 0.00 | 0.00 | 0.00 | 49 | 1021.7 |
| 20260507195650 | 33 | 317 | 0.0 | 0.0 | 0.00 | 0.00 | 0.00 | 47 | 1021.7 |
| 20260507195150 | 34 | 317 | 0.0 | 0.0 | 0.00 | 0.00 | 0.00 | 46 | 1021.7 |
| 20260507194650 | 34 | 317 | 0.0 | 0.0 | 0.00 | 0.00 | 0.00 | 45 | 1021.5 |
| 20260507194150 | 35 | 317 | 0.0 | 0.0 | 0.00 | 0.00 | 0.00 | 45 | 1021.7 |
| 20260507193650 | 35 | 317 | 0.0 | 0.0 | 0.00 | 0.00 | 0.00 | 45 | 1021.5 |
| 20260507193150 | 36 | 317 | 0.0 | 0.0 | 0.00 | 0.00 | 0.00 | 43 | 1021.4 |
| 20260507192650 | 37 | 317 | 0.0 | 0.0 | 0.00 | 0.00 | 0.00 | 41 | 1021.4 |
| 20260507192150 | 37 | 317 | 0.0 | 0.0 | 0.00 | 0.00 | 0.00 | 40 | 1021.3 |
| 20260507191650 | 38 | 317 | 0.0 | 0.0 | 0.00 | 0.00 | 0.00 | 39 | 1021.3 |
| 20260507191150 | 38 | 317 | 0.0 | 0.0 | 0.00 | 0.00 | 0.00 | 38 | 1021.3 |
| 20260507190650 | 39 | 317 | 0.0 | 0.0 | 0.00 | 0.00 | 0.00 | 37 | 1021.3 |
| 20260507190150 | 40 | 246 | 0.0 | 0.0 | 0.00 | 0.00 | 0.00 | 36 | 1021.2 |
| 20260507185650 | 41 | 246 | 0.0 | 0.0 | 0.00 | 0.00 | 0.00 | 36 | 1021.2 |
| 20260507185150 | 41 | 246 | 0.0 | 0.0 | 0.00 | 0.00 | 0.00 | 35 | 1021.2 |
| 20260507184650 | 42 | 246 | 0.0 | 0.0 | 0.00 | 0.00 | 0.00 | 34 | 1021.2 |
| 20260507184150 | 42 | 246 | 0.0 | 3.0 | 0.00 | 0.00 | 0.00 | 33 | 1021.2 |
| 20260507183650 | 43 | 279 | 0.0 | 0.0 | 0.00 | 0.00 | 0.00 | 32 | 1021.2 |
| 20260507183150 | 44 | 279 | 0.0 | 0.0 | 0.00 | 0.00 | 0.00 | 32 | 1021.1 |
| 20260507182650 | 44 | 279 | 0.0 | 0.0 | 0.00 | 0.00 | 0.00 | 31 | 1021.1 |
| 20260507182150 | 44 | 279 | 0.0 | 0.0 | 0.00 | 0.00 | 0.00 | 31 | 1021.1 |
| 20260507181650 | 44 | 279 | 0.0 | 1.0 | 0.00 | 0.00 | 0.00 | 31 | 1021.1 |
| 20260507181150 | 43 | 279 | 0.0 | 5.0 | 0.00 | 0.00 | 0.00 | 30 | 1021.1 |
| 20260507180650 | 43 | 300 | 0.0 | 4.0 | 0.00 | 0.00 | 0.00 | 30 | 1021.1 |
| 20260507180150 | 44 | 319 | 3.0 | 5.0 | 0.00 | 0.00 | 0.00 | 30 | 1021.1 |
| 20260507175650 | 44 | 313 | 0.0 | 3.0 | 0.00 | 0.00 | 0.00 | 30 | 1021.0 |
| 20260507175150 | 44 | 312 | 0.0 | 5.0 | 0.00 | 0.00 | 0.00 | 30 | 1021.2 |
| 20260507174650 | 44 | 323 | 5.0 | 5.0 | 0.00 | 0.00 | 0.00 | 29 | 1021.2 |
| 20260507174150 | 44 | 292 | 2.0 | 6.0 | 0.00 | 0.00 | 0.00 | 29 | 1021.2 |
| 20260507173650 | 44 | 282 | 6.0 | 6.0 | 0.00 | 0.00 | 0.00 | 29 | 1021.2 |
| 20260507173150 | 44 | 303 | 3.0 | 8.0 | 0.00 | 0.00 | 0.00 | 28 | 1021.2 |
| 20260507172650 | 45 | 234 | 0.0 | 6.0 | 0.00 | 0.00 | 0.00 | 29 | 1021.2 |
| 20260507172151 | 45 | 317 | 0.0 | 6.0 | 0.00 | 0.00 | 0.00 | 28 | 1021.2 |
| 20260507171651 | 45 | 278 | 3.0 | 5.0 | 0.00 | 0.00 | 0.00 | 28 | 1021.1 |
| 20260507171151 | 45 | 326 | 3.0 | 6.0 | 0.00 | 0.00 | 0.00 | 27 | 1021.2 |
| 20260507170651 | 45 | 324 | 2.0 | 8.0 | 0.00 | 0.00 | 0.00 | 28 | 1021.3 |
| 20260507170151 | 46 | 317 | 4.0 | 7.0 | 0.00 | 0.00 | 0.00 | 28 | 1021.1 |
| 20260507165651 | 46 | 302 | 2.0 | 5.0 | 0.00 | 0.00 | 0.00 | 27 | 1021.2 |
| 20260507165151 | 46 | 272 | 3.0 | 6.0 | 0.00 | 0.00 | 0.00 | 28 | 1021.3 |
| 20260507164651 | 46 | 212 | 2.0 | 7.0 | 0.00 | 0.00 | 0.00 | 27 | 1021.3 |
| 20260507164151 | 46 | 303 | 0.0 | 7.0 | 0.00 | 0.00 | 0.00 | 28 | 1021.2 |
| 20260507163651 | 46 | 182 | 0.0 | 8.0 | 0.00 | 0.00 | 0.00 | 29 | 1021.3 |
| 20260507163151 | 46 | 257 | 6.0 | 8.0 | 0.00 | 0.00 | 0.00 | 28 | 1021.3 |
| 20260507162651 | 46 | 298 | 8.0 | 8.0 | 0.00 | 0.00 | 0.00 | 27 | 1021.2 |
| 20260507162151 | 46 | 255 | 6.0 | 8.0 | 0.00 | 0.00 | 0.00 | 27 | 1021.3 |
| 20260507161651 | 46 | 309 | 4.0 | 10.0 | 0.00 | 0.00 | 0.00 | 26 | 1021.2 |
| 20260507161151 | 46 | 260 | 4.0 | 6.0 | 0.00 | 0.00 | 0.00 | 28 | 1021.2 |
| 20260507160651 | 46 | 300 | 3.0 | 7.0 | 0.00 | 0.00 | 0.00 | 28 | 1021.2 |
| 20260507160151 | 45 | 319 | 1.0 | 6.0 | 0.00 | 0.00 | 0.00 | 26 | 1021.2 |
| 20260507155651 | 46 | 319 | 2.0 | 10.0 | 0.00 | 0.00 | 0.00 | 27 | 1021.3 |
| 20260507155151 | 46 | 306 | 0.0 | 8.0 | 0.00 | 0.00 | 0.00 | 27 | 1021.2 |
| 20260507154651 | 46 | 299 | 2.0 | 5.0 | 0.00 | 0.00 | 0.00 | 27 | 1021.2 |
| 20260507154151 | 45 | 281 | 3.0 | 9.0 | 0.00 | 0.00 | 0.00 | 27 | 1021.2 |
| 20260507153651 | 45 | 295 | 7.0 | 9.0 | 0.00 | 0.00 | 0.00 | 29 | 1021.2 |
| 20260507153151 | 45 | 305 | 7.0 | 9.0 | 0.00 | 0.00 | 0.00 | 26 | 1021.1 |
| 20260507152651 | 45 | 313 | 0.0 | 9.0 | 0.00 | 0.00 | 0.00 | 29 | 1021.2 |
| 20260507152151 | 45 | 315 | 6.0 | 8.0 | 0.00 | 0.00 | 0.00 | 28 | 1021.2 |
| 20260507151651 | 46 | 329 | 2.0 | 8.0 | 0.00 | 0.00 | 0.00 | 26 | 1021.2 |
| 20260507151151 | 47 | 317 | 6.0 | 9.0 | 0.00 | 0.00 | 0.00 | 28 | 1021.0 |
| 20260507150651 | 47 | 323 | 3.0 | 8.0 | 0.00 | 0.00 | 0.00 | 25 | 1021.2 |
| 20260507150151 | 47 | 244 | 1.0 | 8.0 | 0.00 | 0.00 | 0.00 | 29 | 1021.2 |
| 20260507145651 | 46 | 313 | 3.0 | 6.0 | 0.00 | 0.00 | 0.00 | 30 | 1021.1 |
| 20260507145151 | 46 | 319 | 5.0 | 7.0 | 0.00 | 0.00 | 0.00 | 27 | 1021.1 |
| 20260507144651 | 47 | 77 | 0.0 | 6.0 | 0.00 | 0.00 | 0.00 | 29 | 1021.1 |
| 20260507144151 | 48 | 279 | 2.0 | 8.0 | 0.00 | 0.00 | 0.00 | 27 | 1021.1 |
| 20260507143651 | 48 | 309 | 2.0 | 5.0 | 0.00 | 0.00 | 0.00 | 29 | 1021.1 |
| 20260507143151 | 47 | 104 | 0.0 | 10.0 | 0.00 | 0.00 | 0.00 | 29 | 1021.1 |
| 20260507142651 | 47 | 278 | 5.0 | 8.0 | 0.00 | 0.00 | 0.00 | 28 | 1021.1 |
| 20260507142151 | 47 | 296 | 6.0 | 8.0 | 0.00 | 0.00 | 0.00 | 29 | 1021.1 |
| 20260507141651 | 48 | 343 | 0.0 | 9.0 | 0.00 | 0.00 | 0.00 | 30 | 1021.0 |
| 20260507141151 | 47 | 306 | 1.0 | 9.0 | 0.00 | 0.00 | 0.00 | 31 | 1021.1 |
| 20260507140651 | 47 | 316 | 2.0 | 10.0 | 0.00 | 0.00 | 0.00 | 31 | 1021.0 |
| 20260507140151 | 47 | 300 | 5.0 | 7.0 | 0.00 | 0.00 | 0.00 | 30 | 1021.0 |
| 20260507135651 | 47 | 319 | 5.0 | 9.0 | 0.00 | 0.00 | 0.00 | 30 | 1021.0 |
| 20260507135151 | 46 | 288 | 3.0 | 7.0 | 0.00 | 0.00 | 0.00 | 31 | 1021.0 |
| 20260507134651 | 45 | 300 | 2.0 | 7.0 | 0.00 | 0.00 | 0.00 | 30 | 1021.1 |
| 20260507134151 | 45 | 312 | 5.0 | 10.0 | 0.00 | 0.00 | 0.00 | 31 | 1021.1 |
| 20260507133651 | 46 | 313 | 9.0 | 11.0 | 0.00 | 0.00 | 0.00 | 30 | 1021.1 |
| 20260507133151 | 47 | 307 | 4.0 | 10.0 | 0.00 | 0.00 | 0.00 | 27 | 1021.0 |
| 20260507132651 | 47 | 87 | 1.0 | 9.0 | 0.00 | 0.00 | 0.00 | 30 | 1021.1 |
| 20260507132151 | 48 | 327 | 4.0 | 7.0 | 0.00 | 0.00 | 0.00 | 29 | 1021.0 |
| 20260507131651 | 49 | 8 | 0.0 | 6.0 | 0.00 | 0.00 | 0.00 | 29 | 1021.0 |
| 20260507131151 | 48 | 270 | 0.0 | 9.0 | 0.00 | 0.00 | 0.00 | 31 | 1021.0 |
| 20260507130651 | 48 | 220 | 5.0 | 8.0 | 0.00 | 0.00 | 0.00 | 29 | 1021.1 |
| 20260507130151 | 48 | 212 | 5.0 | 7.0 | 0.00 | 0.00 | 0.00 | 28 | 1021.0 |
| 20260507125651 | 48 | 248 | 7.0 | 7.0 | 0.00 | 0.00 | 0.00 | 30 | 1021.1 |
| 20260507125151 | 48 | 15 | 1.0 | 6.0 | 0.00 | 0.00 | 0.00 | 32 | 1021.1 |
| 20260507124651 | 47 | 278 | 1.0 | 6.0 | 0.00 | 0.00 | 0.00 | 29 | 1021.0 |
| 20260507124151 | 46 | 310 | 2.0 | 5.0 | 0.00 | 0.00 | 0.00 | 34 | 1021.1 |
| 20260507123651 | 46 | 251 | 1.0 | 8.0 | 0.00 | 0.00 | 0.00 | 31 | 1021.1 |
| 20260507123151 | 46 | 288 | 5.0 | 7.0 | 0.00 | 0.00 | 0.00 | 32 | 1021.1 |
| 20260507122651 | 46 | 331 | 3.0 | 10.0 | 0.00 | 0.00 | 0.00 | 31 | 1021.0 |
| 20260507122151 | 46 | 300 | 5.0 | 9.0 | 0.00 | 0.00 | 0.00 | 32 | 1021.0 |
| 20260507121651 | 45 | 33 | 1.0 | 7.0 | 0.00 | 0.00 | 0.00 | 35 | 1021.0 |
| 20260507121151 | 44 | 56 | 0.0 | 10.0 | 0.00 | 0.00 | 0.00 | 35 | 1021.0 |
| 20260507120651 | 44 | 317 | 5.0 | 8.0 | 0.00 | 0.00 | 0.00 | 34 | 1021.0 |
| 20260507120151 | 44 | 9 | 3.0 | 9.0 | 0.00 | 0.00 | 0.00 | 32 | 1021.0 |
| 20260507115651 | 45 | 291 | 4.0 | 8.0 | 0.00 | 0.00 | 0.00 | 34 | 1020.9 |
| 20260507115151 | 45 | 265 | 2.0 | 7.0 | 0.00 | 0.00 | 0.00 | 33 | 1021.0 |
| 20260507114651 | 46 | 320 | 5.0 | 5.0 | 0.00 | 0.00 | 0.00 | 32 | 1021.1 |
| 20260507114151 | 46 | 189 | 0.0 | 5.0 | 0.00 | 0.00 | 0.00 | 34 | 1021.1 |
| 20260507113651 | 45 | 112 | 0.0 | 5.0 | 0.00 | 0.00 | 0.00 | 35 | 1021.1 |
| 20260507113151 | 44 | 12 | 0.0 | 6.0 | 0.00 | 0.00 | 0.00 | 36 | 1020.9 |
| 20260507112651 | 43 | 130 | 0.0 | 6.0 | 0.00 | 0.00 | 0.00 | 37 | 1021.0 |
| 20260507112151 | 42 | 302 | 3.0 | 7.0 | 0.00 | 0.00 | 0.00 | 37 | 1021.0 |
| 20260507111651 | 43 | 323 | 6.0 | 8.0 | 0.00 | 0.00 | 0.00 | 33 | 1021.0 |
| 20260507111151 | 43 | 300 | 3.0 | 11.0 | 0.00 | 0.00 | 0.00 | 35 | 1020.9 |
| 20260507110651 | 43 | 347 | 0.0 | 8.0 | 0.00 | 0.00 | 0.00 | 36 | 1021.0 |
| 20260507110151 | 42 | 315 | 0.0 | 8.0 | 0.00 | 0.00 | 0.00 | 36 | 1020.9 |
| 20260507105651 | 42 | 288 | 0.0 | 7.0 | 0.00 | 0.00 | 0.00 | 37 | 1020.9 |
| 20260507105151 | 42 | 310 | 7.0 | 9.0 | 0.00 | 0.00 | 0.00 | 33 | 1020.9 |
| 20260507104651 | 43 | 302 | 0.0 | 7.0 | 0.00 | 0.00 | 0.00 | 32 | 1020.9 |
| 20260507104151 | 43 | 296 | 4.0 | 5.0 | 0.00 | 0.00 | 0.00 | 33 | 1020.8 |
| 20260507103651 | 43 | 281 | 3.0 | 9.0 | 0.00 | 0.00 | 0.00 | 32 | 1020.8 |
| 20260507103151 | 43 | 268 | 4.0 | 9.0 | 0.00 | 0.00 | 0.00 | 34 | 1020.8 |
| 20260507102651 | 43 | 185 | 2.0 | 6.0 | 0.00 | 0.00 | 0.00 | 40 | 1020.8 |
| 20260507102152 | 43 | 298 | 3.0 | 8.0 | 0.00 | 0.00 | 0.00 | 37 | 1020.8 |
| 20260507101651 | 43 | 220 | 4.0 | 4.0 | 0.00 | 0.00 | 0.00 | 38 | 1020.8 |
| 20260507101151 | 43 | 286 | 3.0 | 7.0 | 0.00 | 0.00 | 0.00 | 39 | 1020.6 |
| 20260507100651 | 43 | 299 | 5.0 | 9.0 | 0.00 | 0.00 | 0.00 | 38 | 1020.6 |
| 20260507100151 | 42 | 151 | 2.0 | 5.0 | 0.00 | 0.00 | 0.00 | 41 | 1020.5 |
| 20260507095651 | 42 | 180 | 0.0 | 0.0 | 0.00 | 0.00 | 0.00 | 41 | 1020.5 |
| 20260507095151 | 41 | 180 | 0.0 | 5.0 | 0.00 | 0.00 | 0.00 | 42 | 1020.5 |
| 20260507094651 | 41 | 313 | 0.0 | 5.0 | 0.00 | 0.00 | 0.00 | 44 | 1020.5 |
| 20260507094151 | 40 | 316 | 1.0 | 6.0 | 0.00 | 0.00 | 0.00 | 42 | 1020.5 |
| 20260507093651 | 40 | 330 | 1.0 | 8.0 | 0.00 | 0.00 | 0.00 | 41 | 1020.4 |
| 20260507093151 | 41 | 300 | 3.0 | 6.0 | 0.00 | 0.00 | 0.00 | 40 | 1020.4 |
| 20260507092651 | 41 | 312 | 0.0 | 5.0 | 0.00 | 0.00 | 0.00 | 44 | 1020.4 |
| 20260507092151 | 40 | 284 | 2.0 | 6.0 | 0.00 | 0.00 | 0.00 | 43 | 1020.4 |
| 20260507091651 | 40 | 277 | 3.0 | 7.0 | 0.00 | 0.00 | 0.00 | 43 | 1020.5 |
| 20260507091151 | 41 | 234 | 2.0 | 5.0 | 0.00 | 0.00 | 0.00 | 42 | 1020.4 |
| 20260507090651 | 40 | 265 | 0.0 | 8.0 | 0.00 | 0.00 | 0.00 | 42 | 1020.5 |
| 20260507090151 | 40 | 153 | 0.0 | 3.0 | 0.00 | 0.00 | 0.00 | 45 | 1020.4 |
| 20260507085651 | 39 | 146 | 1.0 | 4.0 | 0.00 | 0.00 | 0.00 | 43 | 1020.4 |
| 20260507085151 | 38 | 64 | 0.0 | 6.0 | 0.00 | 0.00 | 0.00 | 45 | 1020.4 |
| 20260507084651 | 38 | 312 | 0.0 | 4.0 | 0.00 | 0.00 | 0.00 | 46 | 1020.5 |
| 20260507084151 | 37 | 313 | 2.0 | 4.0 | 0.00 | 0.00 | 0.00 | 49 | 1020.3 |
| 20260507083651 | 36 | 316 | 0.0 | 5.0 | 0.00 | 0.00 | 0.00 | 49 | 1020.4 |
| 20260507083151 | 36 | 309 | 4.0 | 6.0 | 0.00 | 0.00 | 0.00 | 48 | 1020.4 |
| 20260507082651 | 36 | 331 | 1.0 | 7.0 | 0.00 | 0.00 | 0.00 | 50 | 1020.3 |
| 20260507082151 | 35 | 300 | 6.0 | 9.0 | 0.00 | 0.00 | 0.00 | 49 | 1020.3 |
| 20260507081651 | 36 | 322 | 2.0 | 4.0 | 0.00 | 0.00 | 0.00 | 50 | 1020.2 |
| 20260507081151 | 35 | 291 | 3.0 | 5.0 | 0.00 | 0.00 | 0.00 | 50 | 1020.2 |
| 20260507080651 | 34 | 261 | 0.0 | 9.0 | 0.00 | 0.00 | 0.00 | 50 | 1020.2 |
| 20260507080151 | 34 | 285 | 1.0 | 6.0 | 0.00 | 0.00 | 0.00 | 50 | 1020.0 |
| 20260507075651 | 34 | 295 | 3.0 | 7.0 | 0.00 | 0.00 | 0.00 | 50 | 1020.0 |
| 20260507075151 | 33 | 337 | 0.0 | 6.0 | 0.00 | 0.00 | 0.00 | 52 | 1020.1 |
| 20260507074651 | 33 | 312 | 0.0 | 7.0 | 0.00 | 0.00 | 0.00 | 54 | 1020.0 |
| 20260507074151 | 33 | 334 | 5.0 | 9.0 | 0.00 | 0.00 | 0.00 | 51 | 1020.0 |
| 20260507073651 | 33 | 261 | 0.0 | 0.0 | 0.00 | 0.00 | 0.00 | 54 | 1020.1 |
| 20260507073151 | 32 | 261 | 0.0 | 3.0 | 0.00 | 0.00 | 0.00 | 56 | 1020.1 |
| 20260507072651 | 32 | 46 | 0.0 | 8.0 | 0.00 | 0.00 | 0.00 | 57 | 1020.0 |
| 20260507072151 | 31 | 351 | 0.0 | 7.0 | 0.00 | 0.00 | 0.00 | 55 | 1020.0 |
| 20260507071651 | 31 | 323 | 7.0 | 8.0 | 0.00 | 0.00 | 0.00 | 56 | 1020.0 |
| 20260507071151 | 31 | 302 | 3.0 | 6.0 | 0.00 | 0.00 | 0.00 | 57 | 1020.0 |
| 20260507070652 | 31 | 319 | 4.0 | 7.0 | 0.00 | 0.00 | 0.00 | 58 | 1020.0 |
| 20260507070152 | 31 | 329 | 5.0 | 5.0 | 0.00 | 0.00 | 0.00 | 58 | 1019.9 |
| 20260507065652 | 30 | 337 | 1.0 | 5.0 | 0.00 | 0.00 | 0.00 | 59 | 1019.9 |